Mon, 28 Nov 2022 12:04:23 UTC

Information for RPM qdox-0:2.0-3.M9.module_el8.0.0+30+832da3a1.noarch.rpm

ID57810
Nameqdox
Version2.0
Release3.M9.module_el8.0.0+30+832da3a1
Epoch0
Archnoarch
SummaryExtract class/interface/method definitions from sources
DescriptionQDox is a high speed, small footprint parser for extracting class/interface/method definitions from source files complete with JavaDoc @tags. It is designed to be used by active code generators or documentation tools.
Build Time2019-06-21 08:10:52 GMT
Size304551
b469856c49d20ba6fa4903495bfb84cd
LicenseASL 2.0
Buildrootmodule-javapackages-tools-201801-8000020190620195035-211ef2cd-build-21523-950
Provides
mvn(com.thoughtworks.qdox:qdox) = 2.0.M9
mvn(com.thoughtworks.qdox:qdox:pom:) = 2.0.M9
mvn(qdox:qdox) = 2.0.M9
mvn(qdox:qdox:pom:) = 2.0.M9
osgi(com.thoughtworks.qdox) = 1.6.3
qdox = 0:2.0-3.M9.module_el8.0.0+30+832da3a1
Obsoletes No Obsoletes
Conflicts No Conflicts
Requires
java-headless >= 1:1.5
javapackages-filesystem
rpmlib(CompressedFileNames) <= 3.0.4-1
rpmlib(FileDigests) <= 4.6.0-1
rpmlib(PayloadFilesHavePrefix) <= 4.0-1
rpmlib(PayloadIsXz) <= 5.2-1
Recommends No Recommends
Suggests No Suggests
Supplements No Supplements
Enhances No Enhances
Files
1 through 6 of 6
Name ascending sort Size
/usr/share/doc/qdox0
/usr/share/doc/qdox/LICENSE.txt589
/usr/share/doc/qdox/README.md21068
/usr/share/java/qdox.jar319109
/usr/share/maven-metadata/qdox.xml1903
/usr/share/maven-poms/qdox.pom12999
Component of
Page:
1 through 50 of 2437 >>>
Buildroot descending sort Created State
module-pki-deps-10.6-8050020211109192803-b4937e53-build-78907-29296 2021-11-09 19:50:27 expired
module-javapackages-tools-201801-8050020210907182156-79ce6533-build-76382-26839 2021-09-07 18:56:11 expired
module-javapackages-tools-201801-8050020210907182156-79ce6533-build-76381-26839 2021-09-07 18:56:10 expired
module-javapackages-tools-201801-8050020210907182156-79ce6533-build-76379-26839 2021-09-07 18:55:54 expired
module-javapackages-tools-201801-8050020210907182156-79ce6533-build-76377-26839 2021-09-07 18:55:44 expired
module-javapackages-tools-201801-8050020210907182156-79ce6533-build-76375-26839 2021-09-07 18:55:27 expired
module-javapackages-tools-201801-8050020210907182156-79ce6533-build-76374-26839 2021-09-07 18:55:27 expired
module-javapackages-tools-201801-8050020210907182156-79ce6533-build-76373-26839 2021-09-07 18:55:10 expired
module-javapackages-tools-201801-8050020210907182156-79ce6533-build-76369-26839 2021-09-07 18:55:01 expired
module-javapackages-tools-201801-8050020210907182156-79ce6533-build-76357-26839 2021-09-07 18:53:36 expired
module-javapackages-tools-201801-8050020210907182156-79ce6533-build-76356-26839 2021-09-07 18:53:32 expired
module-javapackages-tools-201801-8050020210907182156-79ce6533-build-76355-26839 2021-09-07 18:53:29 expired
module-javapackages-tools-201801-8050020210907182156-79ce6533-build-76354-26839 2021-09-07 18:53:29 expired
module-javapackages-tools-201801-8050020210907182156-79ce6533-build-76353-26839 2021-09-07 18:53:27 expired
module-javapackages-tools-201801-8050020210907182156-79ce6533-build-76352-26839 2021-09-07 18:53:19 expired
module-javapackages-tools-201801-8050020210907182156-79ce6533-build-76351-26839 2021-09-07 18:53:13 expired
module-javapackages-tools-201801-8050020210907182156-79ce6533-build-76350-26839 2021-09-07 18:53:02 expired
module-javapackages-tools-201801-8050020210907182156-79ce6533-build-76349-26839 2021-09-07 18:53:01 expired
module-javapackages-tools-201801-8050020210907182156-79ce6533-build-76348-26839 2021-09-07 18:52:57 expired
module-javapackages-tools-201801-8050020210907182156-79ce6533-build-76347-26839 2021-09-07 18:52:47 expired
module-javapackages-tools-201801-8050020210907182156-79ce6533-build-76346-26839 2021-09-07 18:52:47 expired
module-javapackages-tools-201801-8050020210907182156-79ce6533-build-76345-26839 2021-09-07 18:52:44 expired
module-javapackages-tools-201801-8050020210907182156-79ce6533-build-76344-26839 2021-09-07 18:52:41 expired
module-javapackages-tools-201801-8050020210907182156-79ce6533-build-76343-26839 2021-09-07 18:52:40 expired
module-javapackages-tools-201801-8050020210907182156-79ce6533-build-76342-26839 2021-09-07 18:52:28 expired
module-javapackages-tools-201801-8050020210907182156-79ce6533-build-76341-26839 2021-09-07 18:52:27 expired
module-javapackages-tools-201801-8050020210907182156-79ce6533-build-76330-26839 2021-09-07 18:51:23 expired
module-javapackages-tools-201801-8050020210907182156-79ce6533-build-76329-26839 2021-09-07 18:51:21 expired
module-javapackages-tools-201801-8050020210907182156-79ce6533-build-76326-26839 2021-09-07 18:50:57 expired
module-javapackages-tools-201801-8050020210907182156-79ce6533-build-76322-26839 2021-09-07 18:50:52 expired
module-javapackages-tools-201801-8050020210907182156-79ce6533-build-76318-26839 2021-09-07 18:50:34 expired
module-javapackages-tools-201801-8050020210907182156-79ce6533-build-76317-26839 2021-09-07 18:50:26 expired
module-javapackages-tools-201801-8050020210907182156-79ce6533-build-76315-26839 2021-09-07 18:50:16 expired
module-javapackages-tools-201801-8050020210907182156-79ce6533-build-76314-26839 2021-09-07 18:50:11 expired
module-javapackages-tools-201801-8050020210907182156-79ce6533-build-76313-26839 2021-09-07 18:50:07 expired
module-javapackages-tools-201801-8050020210907182156-79ce6533-build-76312-26839 2021-09-07 18:50:06 expired
module-javapackages-tools-201801-8050020210907182156-79ce6533-build-76310-26839 2021-09-07 18:49:53 expired
module-javapackages-tools-201801-8050020210907182156-79ce6533-build-76307-26839 2021-09-07 18:49:27 expired
module-javapackages-tools-201801-8050020210907182156-79ce6533-build-76306-26839 2021-09-07 18:49:26 expired
module-javapackages-tools-201801-8050020210907182156-79ce6533-build-76305-26839 2021-09-07 18:49:23 expired
module-javapackages-tools-201801-8050020210907182156-79ce6533-build-76303-26839 2021-09-07 18:49:20 expired
module-javapackages-tools-201801-8050020210907182156-79ce6533-build-76302-26839 2021-09-07 18:49:19 expired
module-javapackages-tools-201801-8050020210907182156-79ce6533-build-76301-26839 2021-09-07 18:49:16 expired
module-javapackages-tools-201801-8050020210907182156-79ce6533-build-76297-26839 2021-09-07 18:48:53 expired
module-javapackages-tools-201801-8050020210907182156-79ce6533-build-76296-26839 2021-09-07 18:48:52 expired
module-javapackages-tools-201801-8050020210907182156-79ce6533-build-76294-26839 2021-09-07 18:48:46 expired
module-javapackages-tools-201801-8050020210907182156-79ce6533-build-76293-26839 2021-09-07 18:48:37 expired
module-javapackages-tools-201801-8050020210907182156-79ce6533-build-76291-26839 2021-09-07 18:48:34 expired
module-javapackages-tools-201801-8050020210907182156-79ce6533-build-76290-26839 2021-09-07 18:48:32 expired
module-javapackages-tools-201801-8050020210907182156-79ce6533-build-76289-26839 2021-09-07 18:48:29 expired